Time,TemperatureF,DewpointF,PressureIn,WindDirection,WindDirectionDegrees,WindSpeedMPH,WindSpeedGustMPH,Humidity,HourlyPrecipIn,Conditions,Clouds,dailyrainin,SoftwareType,DateUTC
2013-01-26 00:04:00,47.2,38.6,30.19,North,360,1.0,1.0,72,0.00,,,0.00,Wunderground v.1.15,2013-01-26 06:04:00,
2013-01-26 00:14:00,47.2,38.6,30.20,North,360,0.0,8.0,72,0.00,,,0.00,Wunderground v.1.15,2013-01-26 06:14:00,
2013-01-26 00:19:00,47.2,38.6,30.19,North,360,0.0,8.0,72,0.00,,,0.00,Wunderground v.1.15,2013-01-26 06:19:00,
2013-01-26 00:24:00,47.3,38.7,30.19,North,360,0.0,8.0,72,0.00,,,0.00,Wunderground v.1.15,2013-01-26 06:24:00,
2013-01-26 00:34:00,47.2,38.6,30.19,North,360,2.0,2.0,72,0.00,,,0.00,Wunderground v.1.15,2013-01-26 06:34:00,
2013-01-26 00:39:00,47.2,38.6,30.19,North,360,2.0,5.0,72,0.00,,,0.00,Wunderground v.1.15,2013-01-26 06:39:00,
2013-01-26 00:44:00,47.0,38.4,30.18,North,360,3.0,8.0,72,0.00,,,0.00,Wunderground v.1.15,2013-01-26 06:44:00,
2013-01-26 00:49:00,46.9,38.3,30.18,North,360,3.0,8.0,72,0.00,,,0.00,Wunderground v.1.15,2013-01-26 06:49:00,
2013-01-26 00:59:00,46.7,38.5,30.18,North,360,2.0,2.0,73,0.00,,,0.00,Wunderground v.1.15,2013-01-26 06:59:00,
2013-01-26 01:09:00,46.7,38.5,30.18,North,360,0.0,8.0,73,0.00,,,0.00,Wunderground v.1.15,2013-01-26 07:09:00,
2013-01-26 01:14:00,46.7,38.5,30.17,North,360,0.0,8.0,73,0.00,,,0.00,Wunderground v.1.15,2013-01-26 07:14:00,
2013-01-26 01:19:00,46.7,38.5,30.18,North,360,0.0,8.0,73,0.00,,,0.00,Wunderground v.1.15,2013-01-26 07:19:00,
2013-01-26 01:29:00,46.7,38.9,30.18,North,360,1.0,8.0,74,0.00,,,0.00,Wunderground v.1.15,2013-01-26 07:29:00,
2013-01-26 01:34:00,46.7,38.9,30.18,North,360,1.0,8.0,74,0.00,,,0.00,Wunderground v.1.15,2013-01-26 07:34:00,
2013-01-26 01:39:00,46.6,38.8,30.17,North,355,3.0,8.0,74,0.00,,,0.00,Wunderground v.1.15,2013-01-26 07:39:00,
2013-01-26 01:54:00,46.3,38.5,30.17,North,355,3.0,8.0,74,0.00,,,0.00,Wunderground v.1.15,2013-01-26 07:54:00,
2013-01-26 01:59:00,46.3,38.5,30.18,North,355,1.0,1.0,74,0.00,,,0.00,Wunderground v.1.15,2013-01-26 07:59:00,
2013-01-26 02:05:00,46.3,38.5,30.17,North,5,0.0,4.0,74,0.00,,,0.00,Wunderground v.1.15,2013-01-26 08:05:00,
2013-01-26 02:14:00,46.2,38.7,30.18,North,5,1.0,2.0,75,0.00,,,0.00,Wunderground v.1.15,2013-01-26 08:14:00,
2013-01-26 02:19:00,46.2,38.7,30.18,North,5,1.0,1.0,75,0.00,,,0.00,Wunderground v.1.15,2013-01-26 08:19:00,
2013-01-26 02:29:00,46.2,38.7,30.18,North,5,0.0,8.0,75,0.00,,,0.00,Wunderground v.1.15,2013-01-26 08:29:00,
2013-01-26 02:34:00,46.2,38.7,30.18,North,5,1.0,8.0,75,0.00,,,0.00,Wunderground v.1.15,2013-01-26 08:34:00,
2013-01-26 02:39:00,46.2,38.7,30.18,North,5,2.0,8.0,75,0.00,,,0.00,Wunderground v.1.15,2013-01-26 08:39:00,
2013-01-26 02:44:00,46.2,38.7,30.18,North,360,3.0,8.0,75,0.00,,,0.00,Wunderground v.1.15,2013-01-26 08:44:00,
2013-01-26 02:54:00,46.1,38.6,30.18,North,360,2.0,8.0,75,0.00,,,0.00,Wunderground v.1.15,2013-01-26 08:54:00,
2013-01-26 02:59:00,46.1,38.6,30.18,North,360,2.0,2.0,75,0.00,,,0.00,Wunderground v.1.15,2013-01-26 08:59:00,
2013-01-26 03:04:00,46.1,38.6,30.17,North,360,2.0,8.0,75,0.00,,,0.00,Wunderground v.1.15,2013-01-26 09:04:00,
2013-01-26 03:10:00,46.1,38.6,30.17,North,360,1.0,1.0,75,0.00,,,0.00,Wunderground v.1.15,2013-01-26 09:10:00,
2013-01-26 03:19:00,46.1,39.0,30.16,North,360,0.0,8.0,76,0.00,,,0.00,Wunderground v.1.15,2013-01-26 09:19:00,
2013-01-26 03:24:00,46.0,38.9,30.16,North,360,0.0,8.0,76,0.00,,,0.00,Wunderground v.1.15,2013-01-26 09:24:00,
2013-01-26 03:34:00,46.0,38.9,30.16,North,360,1.0,8.0,76,0.00,,,0.00,Wunderground v.1.15,2013-01-26 09:34:00,
2013-01-26 03:44:00,45.8,39.0,30.16,North,360,1.0,2.0,77,0.00,,,0.00,Wunderground v.1.15,2013-01-26 09:44:00,
2013-01-26 03:49:00,45.7,38.9,30.16,North,360,1.0,1.0,77,0.00,,,0.00,Wunderground v.1.15,2013-01-26 09:49:00,
2013-01-26 03:54:00,45.6,38.8,30.16,North,360,1.0,8.0,77,0.00,,,0.00,Wunderground v.1.15,2013-01-26 09:54:00,
2013-01-26 04:09:00,45.4,38.9,30.16,North,360,1.0,1.0,78,0.00,,,0.00,Wunderground v.1.15,2013-01-26 10:09:00,
2013-01-26 04:14:00,45.4,38.9,30.15,North,360,1.0,8.0,78,0.00,,,0.00,Wunderground v.1.15,2013-01-26 10:14:00,
2013-01-26 04:19:00,45.3,38.8,30.15,North,360,0.0,8.0,78,0.00,,,0.00,Wunderground v.1.15,2013-01-26 10:19:00,
2013-01-26 04:25:00,45.2,38.7,30.15,North,360,1.0,8.0,78,0.00,,,0.00,Wunderground v.1.15,2013-01-26 10:25:00,
2013-01-26 04:34:00,45.0,38.9,30.15,North,360,2.0,8.0,79,0.00,,,0.00,Wunderground v.1.15,2013-01-26 10:34:00,
2013-01-26 04:39:00,44.9,38.8,30.15,North,355,2.0,8.0,79,0.00,,,0.00,Wunderground v.1.15,2013-01-26 10:39:00,
2013-01-26 04:44:00,44.9,38.8,30.15,North,355,2.0,8.0,79,0.00,,,0.00,Wunderground v.1.15,2013-01-26 10:44:00,
2013-01-26 04:49:00,44.8,39.0,30.15,North,355,2.0,2.0,80,0.00,,,0.00,Wunderground v.1.15,2013-01-26 10:49:00,
2013-01-26 04:59:00,44.7,38.9,30.16,North,350,1.0,1.0,80,0.00,,,0.00,Wunderground v.1.15,2013-01-26 10:59:00,
2013-01-26 05:05:00,44.7,38.9,30.16,North,350,1.0,8.0,80,0.00,,,0.00,Wunderground v.1.15,2013-01-26 11:05:00,
2013-01-26 05:10:00,44.5,38.7,30.16,North,351,2.0,8.0,80,0.00,,,0.00,Wunderground v.1.15,2013-01-26 11:10:00,
2013-01-26 05:19:00,44.4,38.6,30.16,North,351,3.0,3.0,80,0.00,,,0.00,Wunderground v.1.15,2013-01-26 11:19:00,
2013-01-26 05:24:00,44.3,38.5,30.15,North,350,2.0,8.0,80,0.00,,,0.00,Wunderground v.1.15,2013-01-26 11:24:00,
2013-01-26 05:29:00,44.4,38.9,30.15,North,350,1.0,1.0,81,0.00,,,0.00,Wunderground v.1.15,2013-01-26 11:29:00,
2013-01-26 05:34:00,44.4,38.9,30.15,North,350,0.0,8.0,81,0.00,,,0.00,Wunderground v.1.15,2013-01-26 11:34:00,
2013-01-26 05:44:00,44.4,38.9,30.15,North,350,0.0,8.0,81,0.00,,,0.00,Wunderground v.1.15,2013-01-26 11:44:00,
2013-01-26 05:49:00,44.4,38.9,30.15,North,350,0.0,8.0,81,0.00,,,0.00,Wunderground v.1.15,2013-01-26 11:49:00,
2013-01-26 05:54:00,44.5,39.0,30.15,North,350,0.0,8.0,81,0.00,,,0.00,Wunderground v.1.15,2013-01-26 11:54:00,
2013-01-26 06:00:00,44.5,39.0,30.16,North,350,0.0,8.0,81,0.00,,,0.00,Wunderground v.1.15,2013-01-26 12:00:00,
2013-01-26 06:09:00,44.6,39.1,30.16,North,350,1.0,1.0,81,0.00,,,0.00,Wunderground v.1.15,2013-01-26 12:09:00,
2013-01-26 06:14:00,44.7,39.2,30.16,North,350,1.0,8.0,81,0.00,,,0.00,Wunderground v.1.15,2013-01-26 12:14:00,
2013-01-26 06:19:00,44.7,39.2,30.16,North,350,0.0,8.0,81,0.00,,,0.00,Wunderground v.1.15,2013-01-26 12:19:00,
2013-01-26 06:24:00,44.8,39.3,30.16,North,350,0.0,8.0,81,0.00,,,0.00,Wunderground v.1.15,2013-01-26 12:24:00,
2013-01-26 06:30:00,44.8,39.3,30.17,North,350,0.0,8.0,81,0.00,,,0.00,Wunderground v.1.15,2013-01-26 12:30:00,
2013-01-26 06:39:00,44.9,39.4,30.17,North,350,0.0,8.0,81,0.00,,,0.00,Wunderground v.1.15,2013-01-26 12:39:00,
2013-01-26 06:44:00,45.0,39.5,30.17,North,350,1.0,8.0,81,0.00,,,0.00,Wunderground v.1.15,2013-01-26 12:44:00,
2013-01-26 06:49:00,45.0,39.5,30.17,North,350,1.0,1.0,81,0.00,,,0.00,Wunderground v.1.15,2013-01-26 12:49:00,
2013-01-26 06:54:00,45.1,39.6,30.17,North,350,0.0,8.0,81,0.00,,,0.00,Wunderground v.1.15,2013-01-26 12:54:00,
2013-01-26 07:00:00,45.1,39.6,30.17,North,350,0.0,8.0,81,0.00,,,0.00,Wunderground v.1.15,2013-01-26 13:00:00,
2013-01-26 07:09:00,45.2,39.7,30.17,North,350,0.0,8.0,81,0.00,,,0.00,Wunderground v.1.15,2013-01-26 13:09:00,
2013-01-26 07:14:00,45.2,39.7,30.17,North,350,0.0,8.0,81,0.00,,,0.00,Wunderground v.1.15,2013-01-26 13:14:00,
2013-01-26 07:24:00,45.3,39.8,30.18,North,350,0.0,8.0,81,0.00,,,0.00,Wunderground v.1.15,2013-01-26 13:24:00,
2013-01-26 07:29:00,45.3,40.1,30.18,North,350,0.0,8.0,82,0.00,,,0.00,Wunderground v.1.15,2013-01-26 13:29:00,
2013-01-26 07:39:00,45.4,40.2,30.18,North,350,0.0,8.0,82,0.00,,,0.00,Wunderground v.1.15,2013-01-26 13:39:00,
2013-01-26 07:44:00,45.5,40.3,30.18,North,350,0.0,8.0,82,0.00,,,0.00,Wunderground v.1.15,2013-01-26 13:44:00,
2013-01-26 07:50:00,45.6,40.7,30.18,North,350,0.0,8.0,83,0.00,,,0.00,Wunderground v.1.15,2013-01-26 13:50:00,
2013-01-26 07:59:00,45.5,40.6,30.18,North,350,0.0,8.0,83,0.00,,,0.00,Wunderground v.1.15,2013-01-26 13:59:00,
2013-01-26 08:09:00,45.6,40.7,30.18,North,350,0.0,8.0,83,0.00,,,0.00,Wunderground v.1.15,2013-01-26 14:09:00,
2013-01-26 08:14:00,45.6,40.7,30.19,North,350,1.0,8.0,83,0.00,,,0.00,Wunderground v.1.15,2013-01-26 14:14:00,
2013-01-26 08:20:00,45.7,40.8,30.19,North,350,1.0,1.0,83,0.00,,,0.00,Wunderground v.1.15,2013-01-26 14:20:00,
2013-01-26 08:29:00,45.8,40.9,30.19,North,350,0.0,8.0,83,0.00,,,0.00,Wunderground v.1.15,2013-01-26 14:29:00,
2013-01-26 08:34:00,45.8,40.9,30.19,North,351,0.0,8.0,83,0.00,,,0.00,Wunderground v.1.15,2013-01-26 14:34:00,
2013-01-26 08:39:00,45.8,40.9,30.19,North,350,0.0,8.0,83,0.00,,,0.00,Wunderground v.1.15,2013-01-26 14:39:00,
2013-01-26 08:44:00,45.9,41.0,30.20,North,350,0.0,8.0,83,0.00,,,0.00,Wunderground v.1.15,2013-01-26 14:44:00,
2013-01-26 08:49:00,45.9,41.3,30.19,North,350,0.0,8.0,84,0.00,,,0.00,Wunderground v.1.15,2013-01-26 14:49:00,
2013-01-26 08:55:00,46.0,41.1,30.20,North,350,0.0,8.0,83,0.00,,,0.00,Wunderground v.1.15,2013-01-26 14:55:00,
2013-01-26 09:04:00,46.0,41.4,30.20,North,350,0.0,8.0,84,0.00,,,0.00,Wunderground v.1.15,2013-01-26 15:04:00,
2013-01-26 09:14:00,46.1,41.5,30.20,North,350,0.0,8.0,84,0.00,,,0.00,Wunderground v.1.15,2013-01-26 15:14:00,
2013-01-26 09:24:00,46.4,41.8,30.20,North,350,0.0,8.0,84,0.00,,,0.00,Wunderground v.1.15,2013-01-26 15:24:00,
2013-01-26 09:29:00,46.4,41.8,30.20,North,350,0.0,8.0,84,0.00,,,0.00,Wunderground v.1.15,2013-01-26 15:29:00,
2013-01-26 09:34:00,46.5,41.9,30.20,North,351,0.0,8.0,84,0.00,,,0.00,Wunderground v.1.15,2013-01-26 15:34:00,
2013-01-26 09:39:00,46.6,42.0,30.20,North,350,0.0,8.0,84,0.00,,,0.00,Wunderground v.1.15,2013-01-26 15:39:00,
2013-01-26 09:45:00,46.8,42.2,30.20,North,351,0.0,8.0,84,0.00,,,0.00,Wunderground v.1.15,2013-01-26 15:45:00,
2013-01-26 09:54:00,46.8,42.5,30.20,North,351,0.0,8.0,85,0.00,,,0.00,Wunderground v.1.15,2013-01-26 15:54:00,
2013-01-26 09:59:00,46.9,42.6,30.21,North,351,0.0,8.0,85,0.00,,,0.00,Wunderground v.1.15,2013-01-26 15:59:00,
2013-01-26 10:04:00,46.9,42.6,30.21,North,350,0.0,8.0,85,0.00,,,0.00,Wunderground v.1.15,2013-01-26 16:04:00,
2013-01-26 10:10:00,46.9,42.6,30.21,North,351,0.0,8.0,85,0.00,,,0.00,Wunderground v.1.15,2013-01-26 16:10:00,
2013-01-26 10:19:00,46.9,42.6,30.21,North,351,0.0,8.0,85,0.00,,,0.00,Wunderground v.1.15,2013-01-26 16:19:00,
2013-01-26 10:24:00,47.1,43.1,30.22,North,351,0.0,8.0,86,0.00,,,0.00,Wunderground v.1.15,2013-01-26 16:24:00,
2013-01-26 10:29:00,47.3,43.3,30.22,North,351,0.0,8.0,86,0.00,,,0.00,Wunderground v.1.15,2013-01-26 16:29:00,
2013-01-26 10:35:00,47.4,43.4,30.22,North,350,0.0,8.0,86,0.00,,,0.00,Wunderground v.1.15,2013-01-26 16:35:00,
2013-01-26 10:44:00,48.2,44.2,30.22,North,351,0.0,8.0,86,0.00,,,0.00,Wunderground v.1.15,2013-01-26 16:44:00,
2013-01-26 10:49:00,48.4,44.1,30.21,North,351,0.0,8.0,85,0.00,,,0.00,Wunderground v.1.15,2013-01-26 16:49:00,
2013-01-26 10:55:00,48.7,44.1,30.22,North,351,0.0,8.0,84,0.00,,,0.00,Wunderground v.1.15,2013-01-26 16:55:00,
2013-01-26 11:00:00,49.3,44.7,30.22,North,351,0.0,8.0,84,0.00,,,0.00,Wunderground v.1.15,2013-01-26 17:00:00,
2013-01-26 11:09:00,49.4,44.1,30.21,North,351,0.0,8.0,82,0.00,,,0.00,Wunderground v.1.15,2013-01-26 17:09:00,
2013-01-26 11:14:00,49.3,44.0,30.21,North,351,0.0,8.0,82,0.00,,,0.00,Wunderground v.1.15,2013-01-26 17:14:00,
2013-01-26 11:19:00,50.0,44.7,30.21,North,350,0.0,8.0,82,0.00,,,0.00,Wunderground v.1.15,2013-01-26 17:19:00,
2013-01-26 11:29:00,51.1,45.1,30.21,North,351,0.0,8.0,80,0.00,,,0.00,Wunderground v.1.15,2013-01-26 17:29:00,
2013-01-26 11:34:00,51.5,45.2,30.21,North,351,0.0,8.0,79,0.00,,,0.00,Wunderground v.1.15,2013-01-26 17:34:00,
2013-01-26 11:39:00,52.1,45.4,30.20,North,351,0.0,8.0,78,0.00,,,0.00,Wunderground v.1.15,2013-01-26 17:39:00,
2013-01-26 11:50:00,52.7,45.3,30.20,North,351,0.0,8.0,76,0.00,,,0.00,Wunderground v.1.15,2013-01-26 17:50:00,
2013-01-26 11:59:00,52.4,44.7,30.19,NNE,17,1.0,1.0,75,0.00,,,0.00,Wunderground v.1.15,2013-01-26 17:59:00,
2013-01-26 12:09:00,53.2,45.5,30.19,NNE,17,0.0,8.0,75,0.00,,,0.00,Wunderground v.1.15,2013-01-26 18:09:00,
2013-01-26 12:14:00,53.0,45.3,30.19,NNE,17,1.0,8.0,75,0.00,,,0.00,Wunderground v.1.15,2013-01-26 18:14:00,
2013-01-26 12:20:00,53.2,45.5,30.18,NNE,17,1.0,1.0,75,0.00,,,0.00,Wunderground v.1.15,2013-01-26 18:20:00,
2013-01-26 12:29:00,53.4,45.3,30.17,NNE,17,1.0,1.0,74,0.00,,,0.00,Wunderground v.1.15,2013-01-26 18:29:00,
2013-01-26 12:34:00,53.7,45.6,30.17,NNE,22,1.0,8.0,74,0.00,,,0.00,Wunderground v.1.15,2013-01-26 18:34:00,
2013-01-26 12:39:00,54.2,46.1,30.17,NNE,22,1.0,1.0,74,0.00,,,0.00,Wunderground v.1.15,2013-01-26 18:39:00,
2013-01-26 12:49:00,54.8,46.3,30.16,NNE,22,0.0,8.0,73,0.00,,,0.00,Wunderground v.1.15,2013-01-26 18:49:00,
2013-01-26 12:54:00,55.2,46.7,30.15,NNE,22,0.0,8.0,73,0.00,,,0.00,Wunderground v.1.15,2013-01-26 18:54:00,
2013-01-26 12:59:00,55.5,46.2,30.15,NNE,29,1.0,1.0,71,0.00,,,0.00,Wunderground v.1.15,2013-01-26 18:59:00,
2013-01-26 13:09:00,55.7,46.8,30.15,NNE,30,1.0,8.0,72,0.00,,,0.00,Wunderground v.1.15,2013-01-26 19:09:00,
2013-01-26 13:19:00,57.1,47.0,30.14,East,84,1.0,8.0,69,0.00,,,0.00,Wunderground v.1.15,2013-01-26 19:19:00,
2013-01-26 13:24:00,56.9,46.8,30.13,East,84,2.0,8.0,69,0.00,,,0.00,Wunderground v.1.15,2013-01-26 19:24:00,
2013-01-26 13:29:00,56.9,47.2,30.13,East,84,1.0,1.0,70,0.00,,,0.00,Wunderground v.1.15,2013-01-26 19:29:00,
2013-01-26 13:39:00,56.8,46.3,30.13,East,84,2.0,2.0,68,0.00,,,0.00,Wunderground v.1.15,2013-01-26 19:39:00,
2013-01-26 13:45:00,56.8,46.7,30.12,East,84,2.0,8.0,69,0.00,,,0.00,Wunderground v.1.15,2013-01-26 19:45:00,
2013-01-26 13:54:00,57.0,46.9,30.12,East,98,2.0,6.0,69,0.00,,,0.00,Wunderground v.1.15,2013-01-26 19:54:00,
2013-01-26 13:59:00,56.9,46.8,30.12,East,101,2.0,2.0,69,0.00,,,0.00,Wunderground v.1.15,2013-01-26 19:59:00,
2013-01-26 14:05:00,56.9,46.8,30.11,East,101,2.0,6.0,69,0.00,,,0.00,Wunderground v.1.15,2013-01-26 20:05:00,
2013-01-26 14:14:00,56.3,46.6,30.11,ESE,117,5.0,8.0,70,0.00,,,0.00,Wunderground v.1.15,2013-01-26 20:14:00,
2013-01-26 14:19:00,56.4,47.1,30.11,ESE,118,3.0,3.0,71,0.00,,,0.00,Wunderground v.1.15,2013-01-26 20:19:00,
2013-01-26 14:29:00,56.2,46.5,30.11,ESE,118,3.0,3.0,70,0.00,,,0.00,Wunderground v.1.15,2013-01-26 20:29:00,
2013-01-26 14:34:00,55.7,46.1,30.11,ESE,118,3.0,8.0,70,0.00,,,0.00,Wunderground v.1.15,2013-01-26 20:34:00,
2013-01-26 14:40:00,55.3,46.1,30.11,ESE,118,1.0,8.0,71,0.00,,,0.00,Wunderground v.1.15,2013-01-26 20:40:00,
2013-01-26 14:49:00,55.3,46.4,30.11,ESE,118,3.0,8.0,72,0.00,,,0.00,Wunderground v.1.15,2013-01-26 20:49:00,
2013-01-26 14:54:00,55.3,46.4,30.11,ESE,119,4.0,8.0,72,0.00,,,0.00,Wunderground v.1.15,2013-01-26 20:54:00,
2013-01-26 15:04:00,55.3,46.8,30.11,ESE,120,3.0,5.0,73,0.00,,,0.00,Wunderground v.1.15,2013-01-26 21:04:00,
2013-01-26 15:09:00,55.5,47.0,30.11,ESE,120,3.0,3.0,73,0.00,,,0.00,Wunderground v.1.15,2013-01-26 21:09:00,
2013-01-26 15:14:00,55.5,47.0,30.11,ESE,120,3.0,8.0,73,0.00,,,0.00,Wunderground v.1.15,2013-01-26 21:14:00,
2013-01-26 15:24:00,55.3,47.2,30.11,ESE,120,3.0,8.0,74,0.00,,,0.00,Wunderground v.1.15,2013-01-26 21:24:00,
2013-01-26 15:29:00,55.3,47.2,30.11,ESE,120,2.0,8.0,74,0.00,,,0.00,Wunderground v.1.15,2013-01-26 21:29:00,
2013-01-26 15:35:00,55.2,47.1,30.11,ESE,120,2.0,8.0,74,0.00,,,0.00,Wunderground v.1.15,2013-01-26 21:35:00,
2013-01-26 15:44:00,55.0,47.2,30.11,ESE,119,4.0,8.0,75,0.00,,,0.00,Wunderground v.1.15,2013-01-26 21:44:00,
2013-01-26 15:49:00,54.9,47.1,30.10,ESE,118,5.0,8.0,75,0.00,,,0.00,Wunderground v.1.15,2013-01-26 21:49:00,
2013-01-26 15:55:00,54.9,47.5,30.10,ESE,118,4.0,8.0,76,0.00,,,0.00,Wunderground v.1.15,2013-01-26 21:55:00,
2013-01-26 16:04:00,54.9,47.8,30.10,ESE,118,4.0,6.0,77,0.00,,,0.00,Wunderground v.1.15,2013-01-26 22:04:00,
2013-01-26 16:09:00,54.9,47.8,30.10,ESE,118,4.0,8.0,77,0.00,,,0.00,Wunderground v.1.15,2013-01-26 22:09:00,
2013-01-26 16:15:00,54.7,47.6,30.10,ESE,117,4.0,8.0,77,0.00,,,0.00,Wunderground v.1.15,2013-01-26 22:15:00,
2013-01-26 16:24:00,54.5,47.8,30.10,ESE,117,3.0,5.0,78,0.00,,,0.00,Wunderground v.1.15,2013-01-26 22:24:00,
2013-01-26 16:29:00,54.4,47.7,30.10,ESE,117,4.0,4.0,78,0.00,,,0.00,Wunderground v.1.15,2013-01-26 22:29:00,
2013-01-26 16:39:00,54.3,47.9,30.10,ESE,117,4.0,8.0,79,0.00,,,0.00,Wunderground v.1.15,2013-01-26 22:39:00,
2013-01-26 16:44:00,54.2,47.8,30.10,ESE,117,4.0,8.0,79,0.00,,,0.00,Wunderground v.1.15,2013-01-26 22:44:00,
2013-01-26 16:49:00,54.1,47.7,30.10,ESE,117,5.0,5.0,79,0.00,,,0.00,Wunderground v.1.15,2013-01-26 22:49:00,
2013-01-26 16:54:00,54.0,48.0,30.10,ESE,118,5.0,8.0,80,0.00,,,0.00,Wunderground v.1.15,2013-01-26 22:54:00,
2013-01-26 17:00:00,53.9,47.9,30.10,ESE,117,5.0,5.0,80,0.00,,,0.00,Wunderground v.1.15,2013-01-26 23:00:00,
2013-01-26 17:09:00,53.8,48.1,30.10,ESE,117,5.0,5.0,81,0.00,,,0.00,Wunderground v.1.15,2013-01-26 23:09:00,
2013-01-26 17:14:00,53.7,48.0,30.10,ESE,113,4.0,7.0,81,0.00,,,0.00,Wunderground v.1.15,2013-01-26 23:14:00,
2013-01-26 17:20:00,53.5,47.8,30.10,ESE,113,4.0,8.0,81,0.00,,,0.00,Wunderground v.1.15,2013-01-26 23:20:00,
2013-01-26 17:29:00,53.3,47.9,30.10,ESE,112,5.0,8.0,82,0.00,,,0.00,Wunderground v.1.15,2013-01-26 23:29:00,
2013-01-26 17:34:00,53.2,47.8,30.10,ESE,112,4.0,8.0,82,0.00,,,0.00,Wunderground v.1.15,2013-01-26 23:34:00,
2013-01-26 17:40:00,53.1,48.1,30.10,ESE,112,4.0,8.0,83,0.00,,,0.00,Wunderground v.1.15,2013-01-26 23:40:00,
2013-01-26 17:49:00,52.9,47.9,30.10,ESE,109,5.0,8.0,83,0.00,,,0.00,Wunderground v.1.15,2013-01-26 23:49:00,
2013-01-26 17:54:00,52.8,47.8,30.10,ESE,109,5.0,8.0,83,0.00,,,0.00,Wunderground v.1.15,2013-01-26 23:54:00,
2013-01-26 18:04:00,52.7,48.0,30.10,ESE,108,4.0,8.0,84,0.00,,,0.00,Wunderground v.1.15,2013-01-27 00:04:00,
2013-01-26 18:09:00,52.7,48.3,30.10,ESE,108,4.0,8.0,85,0.00,,,0.00,Wunderground v.1.15,2013-01-27 00:09:00,
2013-01-26 18:14:00,52.7,48.3,30.10,ESE,108,3.0,8.0,85,0.00,,,0.00,Wunderground v.1.15,2013-01-27 00:14:00,
2013-01-26 18:20:00,52.7,48.3,30.10,ESE,108,3.0,8.0,85,0.00,,,0.00,Wunderground v.1.15,2013-01-27 00:20:00,
2013-01-26 18:29:00,52.6,48.2,30.10,ESE,108,4.0,4.0,85,0.00,,,0.00,Wunderground v.1.15,2013-01-27 00:29:00,
2013-01-26 18:34:00,52.6,48.2,30.10,ESE,107,3.0,5.0,85,0.00,,,0.00,Wunderground v.1.15,2013-01-27 00:34:00,
2013-01-26 18:39:00,52.6,48.2,30.10,ESE,107,3.0,8.0,85,0.00,,,0.00,Wunderground v.1.15,2013-01-27 00:39:00,
2013-01-26 18:49:00,52.5,48.1,30.11,ESE,111,4.0,4.0,85,0.00,,,0.00,Wunderground v.1.15,2013-01-27 00:49:00,
2013-01-26 18:54:00,52.6,48.2,30.11,ESE,112,4.0,7.0,85,0.00,,,0.00,Wunderground v.1.15,2013-01-27 00:54:00,
2013-01-26 18:59:00,52.5,48.4,30.11,ESE,112,4.0,8.0,86,0.00,,,0.00,Wunderground v.1.15,2013-01-27 00:59:00,
2013-01-26 19:05:00,52.5,48.4,30.11,ESE,112,4.0,8.0,86,0.00,,,0.00,Wunderground v.1.15,2013-01-27 01:05:00,
2013-01-26 19:10:00,52.4,48.3,30.11,ESE,112,4.0,8.0,86,0.00,,,0.00,Wunderground v.1.15,2013-01-27 01:10:00,
2013-01-26 19:19:00,52.3,48.5,30.11,ESE,113,5.0,8.0,87,0.00,,,0.00,Wunderground v.1.15,2013-01-27 01:19:00,
2013-01-26 19:24:00,52.2,48.4,30.11,ESE,113,4.0,8.0,87,0.00,,,0.00,Wunderground v.1.15,2013-01-27 01:24:00,
2013-01-26 19:29:00,52.2,48.4,30.11,ESE,113,3.0,8.0,87,0.00,,,0.00,Wunderground v.1.15,2013-01-27 01:29:00,
2013-01-26 19:35:00,52.2,48.8,30.11,ESE,113,4.0,8.0,88,0.00,,,0.00,Wunderground v.1.15,2013-01-27 01:35:00,
2013-01-26 19:40:00,52.1,48.7,30.10,ESE,113,3.0,8.0,88,0.00,,,0.00,Wunderground v.1.15,2013-01-27 01:40:00,
2013-01-26 19:49:00,51.9,48.5,30.11,ESE,113,4.0,8.0,88,0.00,,,0.00,Wunderground v.1.15,2013-01-27 01:49:00,
2013-01-26 19:54:00,51.9,48.8,30.11,ESE,113,2.0,8.0,89,0.00,,,0.00,Wunderground v.1.15,2013-01-27 01:54:00,
2013-01-26 19:59:00,51.9,48.8,30.11,ESE,113,1.0,8.0,89,0.00,,,0.00,Wunderground v.1.15,2013-01-27 01:59:00,
2013-01-26 20:09:00,51.7,48.9,30.10,ESE,113,2.0,8.0,90,0.00,,,0.00,Wunderground v.1.15,2013-01-27 02:09:00,
2013-01-26 20:15:00,51.6,48.8,30.10,ESE,113,3.0,8.0,90,0.00,,,0.00,Wunderground v.1.15,2013-01-27 02:15:00,
2013-01-26 20:20:00,51.6,48.8,30.10,ESE,113,2.0,2.0,90,0.00,,,0.00,Wunderground v.1.15,2013-01-27 02:20:00,
2013-01-26 20:29:00,51.5,48.7,30.11,ESE,113,1.0,8.0,90,0.00,,,0.00,Wunderground v.1.15,2013-01-27 02:29:00,
2013-01-26 20:34:00,51.5,48.7,30.11,ESE,113,3.0,8.0,90,0.00,,,0.00,Wunderground v.1.15,2013-01-27 02:34:00,
2013-01-26 20:44:00,51.5,49.0,30.10,ESE,112,3.0,4.0,91,0.00,,,0.00,Wunderground v.1.15,2013-01-27 02:44:00,
2013-01-26 20:49:00,51.4,48.9,30.10,ESE,112,4.0,4.0,91,0.00,,,0.00,Wunderground v.1.15,2013-01-27 02:49:00,
2013-01-26 20:54:00,51.5,49.0,30.09,ESE,112,3.0,8.0,91,0.00,,,0.00,Wunderground v.1.15,2013-01-27 02:54:00,
2013-01-26 21:00:00,51.4,48.9,30.09,ESE,112,3.0,8.0,91,0.00,,,0.00,Wunderground v.1.15,2013-01-27 03:00:00,
2013-01-26 21:05:00,51.4,48.9,30.09,ESE,112,3.0,8.0,91,0.00,,,0.00,Wunderground v.1.15,2013-01-27 03:05:00,
2013-01-26 21:14:00,51.4,48.9,30.09,ESE,112,1.0,8.0,91,0.00,,,0.00,Wunderground v.1.15,2013-01-27 03:14:00,
2013-01-26 21:19:00,51.4,48.9,30.09,ESE,111,3.0,8.0,91,0.00,,,0.00,Wunderground v.1.15,2013-01-27 03:19:00,
2013-01-26 21:24:00,51.4,48.9,30.08,ESE,111,4.0,8.0,91,0.00,,,0.00,Wunderground v.1.15,2013-01-27 03:24:00,
2013-01-26 21:29:00,51.4,48.9,30.09,ESE,112,3.0,8.0,91,0.00,,,0.00,Wunderground v.1.15,2013-01-27 03:29:00,
2013-01-26 21:35:00,51.4,48.9,30.09,ESE,114,4.0,8.0,91,0.00,,,0.00,Wunderground v.1.15,2013-01-27 03:35:00,
2013-01-26 21:44:00,51.4,48.9,30.09,ESE,114,2.0,8.0,91,0.00,,,0.00,Wunderground v.1.15,2013-01-27 03:44:00,
2013-01-26 21:50:00,51.4,49.2,30.09,ESE,115,2.0,8.0,92,0.00,,,0.00,Wunderground v.1.15,2013-01-27 03:50:00,
2013-01-26 21:59:00,51.3,49.1,30.09,ESE,120,6.0,8.0,92,0.00,,,0.00,Wunderground v.1.15,2013-01-27 03:59:00,
2013-01-26 22:04:00,51.3,49.1,30.09,ESE,120,5.0,8.0,92,0.00,,,0.00,Wunderground v.1.15,2013-01-27 04:04:00,
2013-01-26 22:10:00,51.3,49.1,30.09,ESE,120,3.0,8.0,92,0.00,,,0.00,Wunderground v.1.15,2013-01-27 04:10:00,
2013-01-26 22:19:00,51.2,49.0,30.08,ESE,120,3.0,3.0,92,0.00,,,0.00,Wunderground v.1.15,2013-01-27 04:19:00,
2013-01-26 22:24:00,51.2,49.0,30.08,ESE,120,3.0,8.0,92,0.00,,,0.00,Wunderground v.1.15,2013-01-27 04:24:00,
2013-01-26 22:34:00,51.2,49.2,30.08,SE,132,4.0,6.0,93,0.00,,,0.00,Wunderground v.1.15,2013-01-27 04:34:00,
2013-01-26 22:39:00,51.2,49.2,30.08,SE,132,5.0,8.0,93,0.00,,,0.00,Wunderground v.1.15,2013-01-27 04:39:00,
2013-01-26 22:44:00,51.1,49.1,30.08,SE,132,3.0,8.0,93,0.00,,,0.00,Wunderground v.1.15,2013-01-27 04:44:00,
2013-01-26 22:50:00,51.1,49.1,30.08,SE,132,3.0,8.0,93,0.00,,,0.00,Wunderground v.1.15,2013-01-27 04:50:00,
2013-01-26 22:59:00,51.0,49.0,30.08,SE,130,3.0,3.0,93,0.00,,,0.00,Wunderground v.1.15,2013-01-27 04:59:00,
2013-01-26 23:04:00,51.0,49.0,30.08,SE,130,2.0,5.0,93,0.00,,,0.00,Wunderground v.1.15,2013-01-27 05:04:00,
2013-01-26 23:14:00,50.9,48.9,30.09,SE,130,3.0,8.0,93,0.00,,,0.00,Wunderground v.1.15,2013-01-27 05:14:00,
2013-01-26 23:20:00,50.9,48.9,30.09,SE,130,2.0,2.0,93,0.00,,,0.00,Wunderground v.1.15,2013-01-27 05:20:00,
2013-01-26 23:24:00,50.9,48.9,30.08,SE,130,3.0,5.0,93,0.00,,,0.00,Wunderground v.1.15,2013-01-27 05:24:00,
2013-01-26 23:29:00,50.9,48.9,30.08,SE,130,4.0,4.0,93,0.00,,,0.00,Wunderground v.1.15,2013-01-27 05:29:00,
2013-01-26 23:34:00,51.0,49.0,30.08,SE,130,4.0,8.0,93,0.00,,,0.00,Wunderground v.1.15,2013-01-27 05:34:00,
2013-01-26 23:39:00,51.0,49.3,30.08,SE,130,3.0,8.0,94,0.00,,,0.00,Wunderground v.1.15,2013-01-27 05:39:00,
2013-01-26 23:45:00,51.0,49.3,30.08,SE,130,3.0,8.0,94,0.00,,,0.00,Wunderground v.1.15,2013-01-27 05:45:00,
2013-01-26 23:50:00,51.0,49.3,30.07,SE,130,4.0,8.0,94,0.00,,,0.00,Wunderground v.1.15,2013-01-27 05:50:00,